Jackpot

Texas Poker Multi Jackpot System

Kini Telah hadir Jackpot SUPER ROYAL FLUSH

Kini Telah hadir Jackpot 2000 (khusus table VIP keatas).

Ikutilah global jackpot yang tersedia di system kami, dengan system jackpot terbaru dan pertama di indonesia, anda dapat membeli jackpot dengan harga 100 rupiah saja dan menangkan hadiahnya hingga puluhan juta rupiah.

Jackpot bukanlah suatu keharusan untuk dibeli, namun kami memberikan suatu fitur tambahan untuk member tercinta dari www.minionpoker.com.

Terdapat tiga pilihan harga jackpot yang bisa anda beli yaitu :100,500,1000 dan 2000(khusus table VIP Keatas) rupiah.

Hadiah dari Multi jackpot system www.minionpoker.com

  1. full house x 10 harga jackpot yang anda beli.
      (contoh:anda membeli 1000 maka:1000 X10 = 10.000)
  2. four of kind x 250 harga jackpot yang anda beli
      (contoh:anda membeli 1000 maka:1000 X250 = 250.000)
  3. Straight flush x 1200
      (contoh:anda membeli 1000 maka:1000 X1200 = 1.200.000)
  4. Royal flush x 10000 harga jackpot yang anda beli
      (contoh:anda membeli 1000 maka:1000 X10000 = 10.000.000)
  5. SUPER ROYAL FLUSH x 30000 harga jackpot yang anda beli
      (contoh:anda membeli 1000 maka:1000 X30000 = 30.000.000)

Kondisi kartu

  1. full house adalah kondisi kartu dimana kartu anda dan kartu tengah dengan total 7 kartu bisa mendapatkan nilai 5 kartu dengan kombinasi 1 tris(three of kind) dan 1 pair, contoh 3 kartu 10 dan 2 kartu 5
  2. Four of kind adalah kondisi kartu dimana kartu anda dan kartu tengah dengan total 7 kartu bisa mendapatkan nilai 5 kartu dengan kombinasi 4 kartu yang sama jumlah dan 1 kartu apapun juga contoh anda mendapatkan 4 buah kartu angka 3 dan 1 kartu apapun.
  3. Staright flush adalah kondisi kartu dimana kartu anda dan kartu tengah dengan total 7 kartu bisa mendapatkan nilai 5 kartu dengan kombinasi seri / staright dengan kembang yang sama contoh : urutan kartu dari angka 5, 6, 7, 8 , 9 10 dengan kembang yg sama misalnya as hati
  4. Royal flush adalah kondisi kartu dimana kartu anda dan kartu tengah dengan total 7 kartu bisa mendapatkan nilai 5 kartu dengan kombinasi seri / staright dengan kembang yang sama tetapi kartu tersebut haruslah dimulai dari 10. contoh 10, Queen, Jack, King dan aces dengan kembang yang sama
  5. Super Royal flush adalah kondisi kartu dimana Kedua kartu anda digabung dengan 3 kartu pertama meja haruslah royal flush. contoh kartu anda 10,Queen kembang sama dan 3 kartu pertama meja adalah Jack, King dan aces dengan kembang yang sama

Demikian adalah penjelasan dari Multi Jackpot www.minionpoker.com terima kasih dan selamat bermain salam hoki dari kami

Texas Poker Jackpot Winner

TOP SUPER ROYAL FLUSH
No.TanggalNamaPriceWin
121/07 23:05MANGKARMANSuper Royal flush6,000,000
221/07 22:49RASUL880Super Royal flush3,000,000
321/07 16:17REY345189Super Royal flush15,000,000
421/07 07:22AL_AID4NSuper Royal flush30,000,000
521/07 02:20YOKOKLENSuper Royal flush1,500,000
TOP ROYAL FLUSH
No.TanggalNamaPriceWin
122/07 01:59UWIEZ182Royal flush10,000,000
222/07 01:51ALVA02Royal flush1,000,000
322/07 01:47CHUCKJUSRoyal flush2,000,000
422/07 01:46BAGAS1511Royal flush2,000,000
522/07 01:37DISTRA88Royal flush2,000,000
TOP STRAIGHT FLUSH
No.TanggalNamaPriceWin
122/07 01:59ANDY9111Straight Flush600,000
222/07 01:58SUSFANNYStraight Flush240,000
322/07 01:56SAGEDOYStraight Flush120,000
422/07 01:54ABCHI7Straight Flush240,000
522/07 01:53SINGONOStraight Flush600,000
LATEST JACKPOT
No.TanggalNamaPriceWin
122/07 02:00EE52D750Full House5,000
222/07 02:00C19E17MSFull House1,000
322/07 02:00ZONARFull House2,000
422/07 02:00MLAA_RFull House5,000
522/07 02:00ZOONKINGFull House2,000
622/07 02:00SIGID55Full House2,000
722/07 02:00S4NG48Full House10,000
822/07 02:00FKZMXUSKS8Full House10,000
922/07 02:00POKGANZ89Full House2,000
1022/07 02:00GOK5Full House10,000
1122/07 02:00CELLO270Full House10,000
1222/07 02:00BOZZ6969Full House20,000
1322/07 02:00AGENHAGOFull House20,000
1422/07 02:00CYCHILOPFull House10,000
1522/07 02:00UTGD4TH3CFFull House2,000
1622/07 02:00W4N1T4JUD1Full House10,000
1722/07 02:00ABCHI7Full House2,000
1822/07 02:00SUGRIWO76Full House2,000
1922/07 02:00JEMBETTEFull House2,000
2022/07 02:00CEMBEN47Full House5,000
2122/07 02:00A40IGS791Full House5,000
2222/07 02:00FREDY531Full House2,000
2322/07 02:00MEYLIAN4Full House5,000
2422/07 02:00AJAT01Full House500
2522/07 02:00VXA702KM99Full House5,000
2622/07 02:00JPDONGBO55Full House2,000
2722/07 02:00U__G__DFull House2,000
2822/07 02:00GEISYAHXXXFull House2,000
2922/07 02:00RIZKY_JPKUFull House5,000
3022/07 02:00ZHAQUEENFull House5,000
3122/07 02:00MINYENK31Full House5,000
3222/07 02:00YALRO8888Full House10,000
3322/07 02:00RIJALS99Full House10,000
3422/07 02:00DIAWASI9Full House5,000
3522/07 02:00ENSEM06Full House2,000
3622/07 02:00LICU888Full House10,000
3722/07 02:00M8309REYRPFull House20,000
3822/07 02:00HARMAN1010Full House5,000
3922/07 02:00ANDO766Full House5,000
4022/07 02:00BRAZIL1818Full House2,000
4122/07 02:00LHOTOOY333Full House2,000
4222/07 02:00J4NGK1SLFull House1,000
4322/07 02:00PI4DROEM27Full House5,000
4422/07 02:00RAJA222222Full House5,000
4522/07 02:00ASFA311Full House10,000
4622/07 02:00SELAMET98Full House1,000
4722/07 02:00MR1640BAFull House2,000
4822/07 02:00NCEX123456Full House2,000
4922/07 02:00ALUCH4RDFull House1,000
5022/07 02:00CIVAS12Full House10,000

Domino Multi Jackpot System

Ikutilah global jackpot yang tersedia di system kami, dengan system jackpot terbaru dan pertama di indonesia, anda dapat membeli jackpot dengan harga 100 rupiah saja dan menangkan hadiahnya hingga puluhan juta rupiah.

Jackpot bukanlah suatu keharusan untuk dibeli, namun kami memberikan suatu fitur tambahan untuk member tercinta dari www.minionpoker.com.

Terdapat tiga pilihan harga jackpot yang bisa anda beli yaitu :100,500 dan 1000 rupiah.

Hadiah dari Multi jackpot system www.minionpoker.com

  1. Murni Kecil x 50 harga jackpot yang anda beli.
      (contoh:anda membeli 1000 maka:1000 X 50 = 50.000)
  2. Murni Besar x 50 harga jackpot yang anda beli
      (contoh:anda membeli 1000 maka:1000 X 50 = 50.000)
  3. BALAK x 100 harga jackpot yang anda beli
      (contoh:anda membeli 1000 maka:1000 X 100 = 100.000)
  4. ENAM DEWA x 6666 harga jackpot yang anda beli
      (contoh:anda membeli 1000 maka:1000 X 6666 = 6.666.000)

Demikian adalah penjelasan dari Multi Jackpot www.minionpoker.com terima kasih dan selamat bermain salam hoki dari kami

Domino Jackpot Winner

TOP ENAM DEWA
No.TanggalNamaPriceWin
122/07 01:39AMSAH2606murni enam3,333,000
222/07 01:11VIN703murni enam3,333,000
322/07 01:06HHB28murni enam3,333,000
422/07 00:33ROJACKSEmurni enam6,666,000
522/07 00:14ROBERTA79murni enam6,666,000
TOP BALAK
No.TanggalNamaPriceWin
122/07 01:59AZKIYA09balak100,000
222/07 01:59TOMOHON99balak100,000
322/07 01:57F4KIR45balak100,000
422/07 01:56ADI8900balak10,000
522/07 01:56D291185balak100,000
LATEST JACKPOT
No.TanggalNamaPriceWin
122/07 02:00SYUSYOmurni kecil5,000
222/07 01:59AMRI06murni besar5,000
322/07 01:59ED666306murni besar5,000
422/07 01:59DENNYSmurni kecil50,000
522/07 01:59AZKIYA09balak100,000
622/07 01:59TOMOHON99balak100,000
722/07 01:57PARISMEDANmurni besar5,000
822/07 01:57SUGI1985murni besar5,000
922/07 01:57PITAK_murni kecil50,000
1022/07 01:57ARIA47murni kecil25,000
1122/07 01:57F4KIR45balak100,000
1222/07 01:57J4MUR08murni kecil5,000
1322/07 01:56BEGUG20murni kecil50,000
1422/07 01:56ADI8900balak10,000
1522/07 01:56CEMON35murni besar25,000
1622/07 01:56D291185balak100,000
1722/07 01:56ABDUL272murni kecil50,000
1822/07 01:56WANUEKmurni kecil50,000
1922/07 01:55BIHBUL6666balak100,000
2022/07 01:55CUPLUY01balak50,000
2122/07 01:55MENEPAKYU2murni besar5,000
2222/07 01:54JUN121murni kecil50,000
2322/07 01:54KEROCO2424balak50,000
2422/07 01:54NRYHADIbalak100,000
2522/07 01:54ANTO5_5murni kecil25,000
2622/07 01:54QNET987murni kecil25,000
2722/07 01:53KENTHI11murni besar50,000
2822/07 01:52DESYY44murni kecil25,000
2922/07 01:52AMRI06balak10,000
3022/07 01:52TEMPE444murni besar5,000
3122/07 01:51TOYOK81balak100,000
3222/07 01:51AANSUKARbalak100,000
3322/07 01:50KEMENER86balak100,000
3422/07 01:50ALISSA21murni besar5,000
3522/07 01:50T4DIPAGImurni kecil25,000
3622/07 01:50BORAXSmurni kecil25,000
3722/07 01:49PARISMEDANmurni besar5,000
3822/07 01:49D99DE4FBmurni besar25,000
3922/07 01:49ITR11murni kecil50,000
4022/07 01:49MALIH3232murni besar50,000
4122/07 01:48ALDI0107murni kecil25,000
4222/07 01:48TETANUSEKEbalak50,000
4322/07 01:48IW4N98balak10,000
4422/07 01:48BEIBYSEXY9murni besar50,000
4522/07 01:48HAJI_ABASmurni besar50,000
4622/07 01:47JAEWOYO55lucky9925,000
4722/07 01:47FOZANTCmurni besar5,000
4822/07 01:47ATH2ZLDADHmurni kecil5,000
4922/07 01:46T4DMERCON99murni kecil50,000
5022/07 01:46TAMI012murni kecil25,000

Ceme Multi Jackpot System

Jackpot dilihat dari gabungan kartu pemain dengan kartu bandar. Bandar harus membeli jackpot sebanyak jumlah player yang sedang duduk. Sebagai contoh bila terdapat 3 pemain duduk bermain, dan bandar memutuskan untuk membeli jackpot Rp 1.000, maka pada periode tersebut bandar akan membeli jackpot sebanyak 3xRp1.000 = Rp3.000.

Jackpot bukanlah suatu keharusan untuk dibeli, namun kami memberikan suatu fitur tambahan untuk member tercinta dari www.minionpoker.com.

Terdapat tiga pilihan harga jackpot yang bisa anda beli yaitu :100,500 dan 1000 rupiah.

Hadiah dari Multi jackpot system www.minionpoker.com

  1. Murni Kecil x 50 harga jackpot yang anda beli.
      (contoh:anda membeli 1000 maka:1000 X 50 = 50.000)
  2. Murni Besar x 50 harga jackpot yang anda beli
      (contoh:anda membeli 1000 maka:1000 X 50 = 50.000)
  3. BALAK x 200 harga jackpot yang anda beli
      (contoh:anda membeli 1000 maka:1000 X 200 = 200.000)
  4. ENAM DEWA x 6666 harga jackpot yang anda beli
      (contoh:anda membeli 1000 maka:1000 X 6666 = 6.666.000)

Demikian adalah penjelasan dari Multi Jackpot www.minionpoker.com terima kasih dan selamat bermain salam hoki dari kami

Ceme Jackpot Winner

TOP ENAM DEWA
No.TanggalNamaPriceWin
122/07 01:49NIKEVmurni enam6,666,000
222/07 01:49XILLIENSmurni enam6,666,000
322/07 01:47MILUS198murni enam6,666,000
422/07 01:47SUYATmurni enam666,600
522/07 01:43PENIS07murni enam6,666,000
TOP BALAK
No.TanggalNamaPriceWin
122/07 02:00MAT4DU1Tbalak200,000
222/07 02:00KODRI018balak200,000
322/07 02:00CAHYOKWEKbalak20,000
422/07 02:00PANGKAS10balak20,000
522/07 01:59NDBLACK14balak20,000
LATEST JACKPOT
No.TanggalNamaPriceWin
122/07 02:00MAT4DU1Tbalak200,000
222/07 02:00KODRI018balak200,000
322/07 02:00ANAVIAmurni besar50,000
422/07 02:00FORTUNA116murni besar25,000
522/07 02:00JEKPROTTTTmurni besar25,000
622/07 02:00TAUFIK3131murni kecil50,000
722/07 02:00CAHYOKWEKbalak20,000
822/07 02:00PANGKAS10balak20,000
922/07 02:00SHADOW777murni besar50,000
1022/07 02:00JBLCEPUmurni besar25,000
1122/07 02:00HADIQQ666murni kecil25,000
1222/07 02:00MANUT999murni kecil50,000
1322/07 01:59NDBLACK14balak20,000
1422/07 01:59MISLI222murni besar25,000
1522/07 01:59D14NS3T1Amurni kecil50,000
1622/07 01:59INCES011murni kecil50,000
1722/07 01:59THOLLE55murni kecil25,000
1822/07 01:59KELIK303JOmurni kecil5,000
1922/07 01:59DAKKENOmurni kecil50,000
2022/07 01:59L4ZY712murni kecil25,000
2122/07 01:59BOSIFUTmurni besar50,000
2222/07 01:59BONGGOLDmurni kecil25,000
2322/07 01:59PONG86murni kecil50,000
2422/07 01:59B33JO99murni kecil50,000
2522/07 01:59AAAACCC132murni kecil50,000
2622/07 01:59SXJ1GTEAVYmurni kecil50,000
2722/07 01:59WEND123456murni kecil25,000
2822/07 01:59GINTINGTINmurni besar50,000
2922/07 01:59SAP78murni besar5,000
3022/07 01:59PAIREN23murni kecil50,000
3122/07 01:59PAIREN23murni kecil50,000
3222/07 01:59GRONTOL_2murni kecil25,000
3322/07 01:58POKERDPmurni kecil5,000
3422/07 01:58ADIYT10murni kecil50,000
3522/07 01:58R4D3N092murni besar50,000
3622/07 01:58TENGTLEmurni besar50,000
3722/07 01:58CHICALmurni kecil50,000
3822/07 01:58ABUT1504murni besar50,000
3922/07 01:58VENUSMARSSmurni besar5,000
4022/07 01:58I26GE5668Imurni besar5,000
4122/07 01:58FRONTAL01murni besar25,000
4222/07 01:58WA082391murni besar50,000
4322/07 01:58JIPONK99murni besar50,000
4422/07 01:58B6FB2385murni besar50,000
4522/07 01:58DODOGGmurni kecil5,000
4622/07 01:57ROUPSM338murni besar50,000
4722/07 01:57PRASSTAmurni kecil5,000
4822/07 01:57AMAYBORmurni kecil25,000
4922/07 01:57TEDDY_TJGmurni kecil5,000
5022/07 01:57MANGGATARmurni kecil5,000